TimeCDT,TemperatureF,Dew PointF,Humidity,Sea Level PressureIn,VisibilityMPH,Wind Direction,Wind SpeedMPH,Gust SpeedMPH,PrecipitationIn,Events,Conditions,WindDirDegrees,DateUTC
12:53 AM,66.0,55.9,70,30.04,10.0,East,15.0,-,N/A,,Overcast,80,2013-05-02 05:53:00
1:53 AM,64.9,55.9,73,30.03,10.0,East,13.8,-,N/A,,Overcast,80,2013-05-02 06:53:00
2:53 AM,64.9,55.9,73,30.02,10.0,East,17.3,24.2,N/A,,Overcast,80,2013-05-02 07:53:00
3:53 AM,64.9,55.9,73,30.01,10.0,East,18.4,-,N/A,,Mostly Cloudy,80,2013-05-02 08:53:00
4:53 AM,64.9,55.9,73,30.01,10.0,East,15.0,-,N/A,,Overcast,80,2013-05-02 09:53:00
5:22 AM,64.4,55.4,73,30.03,10.0,East,10.4,19.6,N/A,,Overcast,90,2013-05-02 10:22:00
5:53 AM,64.9,57.0,75,30.04,10.0,East,11.5,-,N/A,,Overcast,90,2013-05-02 10:53:00
6:53 AM,66.0,57.0,73,30.05,10.0,East,12.7,-,N/A,,Overcast,90,2013-05-02 11:53:00
7:53 AM,66.0,57.9,75,30.06,10.0,East,11.5,-,N/A,,Overcast,80,2013-05-02 12:53:00
8:53 AM,69.1,59.0,70,30.08,10.0,East,10.4,-,N/A,,Overcast,90,2013-05-02 13:53:00
9:53 AM,69.1,59.0,70,30.07,10.0,East,18.4,25.3,N/A,,Overcast,90,2013-05-02 14:53:00
10:53 AM,69.1,60.1,73,30.08,10.0,East,17.3,-,N/A,,Overcast,90,2013-05-02 15:53:00
11:53 AM,69.1,60.1,73,30.07,10.0,East,13.8,-,N/A,,Overcast,80,2013-05-02 16:53:00
12:53 PM,70.0,61.0,73,30.06,10.0,NE,11.5,-,N/A,,Overcast,50,2013-05-02 17:53:00
1:53 PM,70.0,61.0,73,30.05,10.0,ENE,11.5,-,N/A,,Overcast,60,2013-05-02 18:53:00
2:53 PM,71.1,61.0,70,30.03,10.0,ENE,12.7,-,N/A,,Overcast,70,2013-05-02 19:53:00
3:24 PM,73.4,62.6,69,30.02,10.0,East,13.8,20.7,N/A,,Overcast,80,2013-05-02 20:24:00
3:50 PM,71.6,62.6,73,30.01,10.0,ENE,15.0,18.4,N/A,,Mostly Cloudy,60,2013-05-02 20:50:00
3:53 PM,72.0,61.0,68,30.01,10.0,ENE,13.8,18.4,N/A,,Overcast,70,2013-05-02 20:53:00
4:19 PM,71.6,60.8,69,30.01,10.0,ENE,12.7,20.7,N/A,,Overcast,60,2013-05-02 21:19:00
4:53 PM,72.0,61.0,68,30.01,10.0,ENE,10.4,-,N/A,,Overcast,70,2013-05-02 21:53:00
5:53 PM,72.0,62.1,71,30.00,10.0,NE,6.9,-,N/A,,Overcast,50,2013-05-02 22:53:00
6:53 PM,72.0,62.1,71,29.99,10.0,NE,8.1,-,N/A,,Partly Cloudy,50,2013-05-02 23:53:00
7:53 PM,71.1,61.0,70,29.99,10.0,ENE,10.4,-,N/A,,Scattered Clouds,60,2013-05-03 00:53:00
8:53 PM,71.1,60.1,68,30.01,10.0,East,16.1,-,N/A,,Mostly Cloudy,80,2013-05-03 01:53:00
9:53 PM,71.1,59.0,66,30.02,10.0,East,17.3,24.2,N/A,,Overcast,80,2013-05-03 02:53:00
10:53 PM,70.0,59.0,68,30.01,10.0,ENE,11.5,-,N/A,,Overcast,70,2013-05-03 03:53:00
11:53 PM,69.1,59.0,70,30.01,10.0,East,17.3,23.0,N/A,,Overcast,80,2013-05-03 04:53:00